CAPE
0 0 0 0 0 2 1 0 0 0 0 0 0 0 0 0 0 0 0 23 0 206 388 23 69 40 0 0 0 0 0 0 0 9 8 0 0 0 0 50 14 14 7 1 0
1 0 0 0 1 1 0 0 0 0 0 0 0 0 0 0 0 0 7 228 514 433 134 0 5 83 0 0 0 0 0 0 0 0 76 3 0 0 0 8 71 32 0 0 0
1 1 0 0 1 1 0 0 0 0 0 0 0 0 0 0 0 0 0 33 703 473 186 1 38 12 0 0 0 0 0 0 0 0 16 0 0 0 8 0 130 287 0 0 0
1 0 0 1 0 0 0 0 0 0 0 0 0 0 0 0 0 0 0 0 490 66 39 82 64 0 0 0 0 0 0 0 0 0 1 3 0 0 4 36 0 41 0 0 0
0 1 1 1 0 0 0 0 0 0 0 0 0 0 0 0 0 0 0 0 145 81 69 139 14 0 0 0 0 0 0 0 0 0 0 0 28 1 0 0 0 0 0 0 0
2 2 0 0 0 0 0 0 0 0 0 0 0 0 0 0 0 0 0 0 0 34 9 0 0 0 0 0 0 0 0 0 0 0 1 7 0 19 0 0 0 0 0 0 0
1 2 0 0 0 0 0 0 0 0 0 0 0 0 0 0 0 0 0 0 0 1 35 39 4 0 0 0 0 0 0 0 0 0 0 8 7 20 0 4 0 0 0 0 0
1 0 0 0 0 0 0 0 0 0 0 0 0 0 0 0 0 0 0 0 0 0 0 0 0 0 0 0 0 0 0 0 0 0 0 7 0 9 13 0 6 1 0 0 0
0 0 0 0 0 0 0 0 0 0 0 0 0 0 0 0 0 0 0 0 0 0 0 0 0 0 0 0 0 0 0 0 0 0 0 1 0 11 11 0 77 21 16 0 0
0 0 0 0 0 0 0 0 0 0 0 0 0 0 0 0 0 0 0 0 0 0 0 0 0 0 0 0 0 0 0 0 0 0 0 0 0 0 89 1 15 67 53 2 0
0 0 0 0 0 0 0 0 0 0 0 0 0 0 0 0 0 0 0 0 0 0 0 0 0 0 0 0 0 0 0 0 0 0 0 0 0 0 6 28 1 0 72 78 5
0 0 0 0 0 0 0 0 0 0 0 0 0 0 0 0 0 0 0 0 0 0 0 0 0 0 0 0 0 0 0 0 0 0 0 0 0 0 0 15 0 0 0 0 22
0 0 0 0 0 0 0 0 0 0 0 0 0 0 0 0 0 0 0 0 0 0 0 0 0 0 0 0 0 0 0 0 0 0 0 0 0 0 0 0 8 0 0 1 12
0 0 0 0 0 0 0 0 0 0 0 0 0 0 0 0 0 0 0 0 0 0 0 0 0 0 0 0 0 0 0 0 0 0 0 0 0 0 0 0 0 10 6 0 0
0 0 0 0 0 0 0 0 0 0 0 0 0 0 0 0 0 0 0 0 0 0 0 0 0 0 0 0 0 0 0 0 0 0 0 0 0 0 0 0 0 0 0 0 0
0 0 0 0 0 0 0 0 0 0 0 0 0 0 0 0 0 0 0 0 0 0 0 0 0 0 0 0 0 0 0 0 0 0 0 0 0 0 0 0 0 0 0 0 13
0 0 0 0 0 0 0 0 0 0 0 0 0 0 0 0 0 0 0 0 0 0 0 0 0 0 0 0 0 0 0 0 0 0 0 0 0 0 0 0 0 0 0 0 0
0 0 0 0 0 0 0 0 0 0 0 0 0 0 0 0 0 0 0 0 0 0 0 0 0 0 0 0 0 0 0 0 0 0 0 0 0 0 0 0 0 0 0 0 0
0 0 0 0 0 0 0 0 0 0 0 0 0 0 0 0 0 0 0 0 0 0 0 0 0 0 0 0 0 0 0 0 0 0 0 0 0 0 0 0 0 0 0 0 0
0 0 0 0 0 0 0 0 0 0 0 0 0 0 0 0 0 0 0 0 0 0 0 0 0 0 0 0 0 0 0 0 0 0 0 0 0 0 0 0 0 0 0 0 0
0 0 0 0 0 0 0 0 0 0 0 0 0 0 0 0 0 0 0 0 0 0 0 0 0 0 0 0 0 0 0 0 0 0 0 0 0 0 0 0 0 0 0 0 0
0 0 0 0 0 0 0 0 0 0 0 0 0 0 0 0 0 0 0 0 0 0 0 0 0 0 0 0 0 0 0 0 0 0 0 0 0 0 0 0 0 0 0 0 0
0 0 0 0 0 0 0 0 0 0 0 0 0 0 0 0 0 0 0 0 0 0 0 0 0 0 0 0 0 0 0 0 0 0 0 0 0 0 0 0 0 0 0 0 0
0 0 0 0 0 0 0 0 0 0 0 0 0 0 0 0 0 0 0 0 0 0 0 0 0 0 0 0 0 0 0 0 0 0 0 0 0 0 0 0 0 0 0 0 0
0 0 0 0 0 0 0 0 0 0 0 0 0 0 0 0 0 0 0 0 0 0 0 0 0 0 0 0 0 0 0 0 0 0 0 0 0 0 0 0 0 0 0 0 0
0 0 0 0 0 0 0 0 0 0 0 0 0 0 0 0 0 0 0 0 0 0 0 0 0 0 0 0 0 0 0 0 0 0 0 0 0 0 0 0 0 0 0 0 0
0 0 0 0 0 0 0 0 0 0 0 0 0 0 0 0 0 0 0 0 0 0 0 0 0 0 0 0 0 0 0 0 0 0 0 0 0 0 0 0 0 0 0 0 0
CIN
0 0 0 0 0 0 0 0 0 0 0 0 0 0 0 0 0 0 0 -17 0 -44 -9 -118 -64 -75 0 0 0 0 0 0 0 -117 -108 0 0 0 0 -220 -381 -502 -426 -245 0
0 0 0 0 0 0 0 0 0 0 0 0 0 0 0 0 0 0 -19 -3 -2 -8 -30 0 -32 -35 0 0 0 0 0 0 0 0 -96 -68 0 0 0 -106 -234 -403 0 0 0
0 0 0 0 0 0 0 0 0 0 0 0 0 0 0 0 0 0 0 -32 -7 -33 -57 -58 -58 -15 0 0 0 0 0 0 0 0 -177 0 0 0 -119 0 -191 -183 0 0 0
0 0 0 0 0 0 0 0 0 0 0 0 0 0 0 0 0 0 0 0 -14 -74 -66 -37 -29 0 0 0 0 0 0 0 0 0 -162 -76 0 0 -50 -50 0 -323 0 0 0
0 0 0 0 0 0 0 0 0 0 0 0 0 0 0 0 0 0 0 0 -29 -38 -47 -16 -20 0 0 0 0 0 0 0 0 0 0 0 -30 -30 0 0 0 0 0 0 0
0 0 0 0 0 0 0 0 0 0 0 0 0 0 0 0 0 0 0 0 0 -30 -44 0 -6 0 0 0 0 0 0 0 0 0 -14 -72 0 -25 0 -51 0 0 0 0 0
0 0 0 0 0 0 0 0 0 0 0 0 0 0 0 0 0 0 0 0 0 -2 -13 -39 -22 0 0 0 0 0 0 0 0 0 -1 -56 -45 -38 0 -181 0 0 0 0 0
0 0 0 0 0 0 0 0 0 0 0 0 0 0 0 0 0 0 0 0 0 0 0 0 0 0 0 0 0 0 0 0 0 0 0 -24 0 -68 -96 0 -70 -229 -236 0 0
0 0 0 0 0 0 0 0 0 0 0 0 0 0 0 0 0 0 0 0 0 0 0 0 0 0 0 0 0 0 0 0 0 0 0 -10 0 -107 -85 0 -8 -66 -240 0 0
0 0 0 0 0 0 0 0 0 0 0 0 0 0 0 0 0 0 0 0 0 0 0 0 0 0 0 0 0 0 0 0 0 0 0 0 0 0 -72 -20 -6 -61 -142 -79 0
0 0 0 0 0 0 0 0 0 0 0 0 0 0 0 0 0 0 0 0 0 0 0 0 0 0 0 0 0 0 0 0 0 0 0 0 0 0 -96 -58 -7 0 -55 -77 -154
0 0 0 0 0 0 0 0 0 0 0 0 0 0 0 0 0 0 0 0 0 0 0 0 0 0 0 0 0 0 0 0 0 0 0 0 0 0 0 -68 0 0 0 0 -65
0 0 0 0 0 0 0 0 0 0 0 0 0 0 0 0 0 0 0 0 0 0 0 0 0 0 0 0 0 0 0 0 0 0 0 0 0 0 0 0 -65 0 0 -17 -34
0 0 0 0 0 0 0 0 0 0 0 0 0 0 0 0 0 0 0 0 0 0 0 0 0 0 0 0 0 0 0 0 0 0 0 0 0 0 0 0 0 -107 -68 0 0
0 0 0 0 0 0 0 0 0 0 0 0 0 0 0 0 0 0 0 0 0 0 0 0 0 0 0 0 0 0 0 0 0 0 0 0 0 0 0 0 0 0 0 -45 -9
0 0 0 0 0 0 0 0 0 0 0 0 0 0 0 0 0 0 0 0 0 0 0 0 0 0 0 0 0 0 0 0 0 0 0 0 0 0 0 0 0 0 0 0 -108
0 0 0 0 0 0 0 0 0 0 0 0 0 0 0 0 0 0 0 0 0 0 0 0 0 0 0 0 0 0 0 0 0 0 0 0 0 0 0 0 0 0 0 0 0
0 0 0 0 0 0 0 0 0 0 0 0 0 0 0 0 0 0 0 0 0 0 0 0 0 0 0 0 0 0 0 0 0 0 0 0 0 0 0 0 0 0 0 0 0
0 0 0 0 0 0 0 0 0 0 0 0 0 0 0 0 0 0 0 0 0 0 0 0 0 0 0 0 0 0 0 0 0 0 0 0 0 0 0 0 0 0 0 0 0
0 0 0 0 0 0 0 0 0 0 0 0 0 0 0 0 0 0 0 0 0 0 0 0 0 0 0 0 0 0 0 0 0 0 0 0 0 0 0 0 0 0 0 0 0
0 0 0 0 0 0 0 0 0 0 0 0 0 0 0 0 0 0 0 0 0 0 0 0 0 0 0 0 0 0 0 0 0 0 0 0 0 0 0 0 0 0 0 0 0
0 0 0 0 0 0 0 0 0 0 0 0 0 0 0 0 0 0 0 0 0 0 0 0 0 0 0 0 0 0 0 0 0 0 0 0 0 0 0 0 0 0 0 0 0
0 0 0 0 0 0 0 0 0 0 0 0 0 0 0 0 0 0 0 0 0 0 0 0 0 0 0 0 0 0 0 0 0 0 0 0 0 0 0 0 0 0 0 0 0
0 0 0 0 0 0 0 0 0 0 0 0 0 0 0 0 0 0 0 0 0 0 0 0 0 0 0 0 0 0 0 0 0 0 0 0 0 0 0 0 0 0 0 0 0
0 0 0 0 0 0 0 0 0 0 0 0 0 0 0 0 0 0 0 0 0 0 0 0 0 0 0 0 0 0 0 0 0 0 0 0 0 0 0 0 0 0 0 0 0
0 0 0 0 0 0 0 0 0 0 0 0 0 0 0 0 0 0 0 0 0 0 0 0 0 0 0 0 0 0 0 0 0 0 0 0 0 0 0 0 0 0 0 0 0
0 0 0 0 0 0 0 0 0 0 0 0 0 0 0 0 0 0 0 0 0 0 0 0 0 0 0 0 0 0 0 0 0 0 0 0 0 0 0 0 0 0 0 0 0
Wind_Speed
14 17 18 19 19 21 24 28 29 28 27 27 27 27 25 24 24 24 25 19 23 18 24 24 19 20 21 26 27 27 37 45 43 39 36 27 24 19 19 19 22 19 17 16 8
12 13 14 16 16 18 22 25 25 25 25 25 25 24 21 19 20 23 20 19 5 11 20 20 18 19 21 25 27 32 40 36 33 34 35 31 26 20 22 23 26 21 17 7 9
11 11 12 13 14 16 19 21 23 23 24 24 24 22 19 18 19 21 18 12 14 24 16 14 17 16 19 21 27 31 40 31 27 29 29 30 30 20 22 26 28 25 15 10 11
11 11 12 12 13 14 16 18 20 21 22 22 22 21 18 19 20 17 11 15 22 20 17 16 16 15 16 22 25 31 33 32 27 27 30 32 30 27 22 24 25 25 13 11 13
12 12 12 11 12 13 14 16 18 20 20 20 20 21 21 21 18 12 2 17 19 21 21 20 17 16 16 19 23 30 29 29 27 26 26 29 35 39 26 25 23 19 14 13 14
14 13 12 11 11 11 13 14 16 17 19 18 18 20 22 25 16 10 11 15 19 21 21 20 17 17 16 18 21 24 30 32 29 28 27 29 33 34 32 22 23 21 19 18 18
17 15 13 11 11 11 11 12 13 14 15 16 17 20 21 21 15 11 14 16 16 17 17 15 18 17 17 17 19 22 25 31 30 27 28 29 33 41 37 25 23 24 21 19 19
17 15 13 10 10 10 9 10 11 11 13 17 17 20 22 17 12 15 14 15 15 14 14 11 10 17 16 18 18 22 22 29 30 30 27 29 48 39 26 29 27 24 22 22 21
14 13 13 12 11 10 9 7 9 14 15 17 22 22 26 16 19 15 17 14 12 16 17 15 18 15 15 15 17 19 24 27 27 29 29 33 35 32 31 29 33 29 21 23 22
13 13 14 15 14 12 9 9 15 17 20 18 24 22 21 21 16 15 17 17 17 14 18 21 21 15 14 14 17 19 24 22 27 26 30 33 36 30 35 25 33 29 23 24 25
17 16 16 15 14 13 17 19 20 21 24 26 23 23 19 16 17 18 18 17 20 22 21 20 26 20 15 14 14 16 18 22 22 23 27 35 38 32 33 39 38 36 27 23 27
19 19 17 16 14 17 21 25 22 18 22 20 19 18 17 19 22 20 19 21 20 19 19 20 29 11 14 16 16 16 17 22 22 20 24 29 37 38 34 37 38 39 36 32 26
21 21 18 14 17 22 26 24 17 18 23 23 20 19 20 19 21 20 21 20 21 20 19 21 17 15 18 16 16 16 17 19 23 25 22 28 36 39 35 34 36 33 42 40 31
22 23 21 18 21 21 22 18 17 17 26 31 26 22 19 18 21 17 18 20 21 21 18 17 14 14 17 18 17 17 18 20 21 23 32 24 40 37 38 38 39 41 44 42 35
21 22 22 25 20 21 19 16 18 19 32 23 25 19 19 23 18 21 18 18 20 19 19 19 15 13 16 15 19 18 20 20 21 23 26 29 35 34 32 43 43 41 43 47 39
21 21 21 20 20 19 17 18 19 26 28 26 23 27 29 25 23 18 20 19 17 19 18 17 15 16 15 11 11 11 20 21 20 23 31 29 33 34 35 38 38 33 35 41 44
20 20 19 18 19 17 18 21 24 29 22 24 24 26 26 25 25 26 24 25 25 24 24 18 18 15 15 13 15 14 15 21 25 28 33 25 31 37 31 29 29 32 29 35 40
19 18 18 18 17 18 19 21 25 22 21 20 21 22 25 27 25 24 26 27 24 24 20 22 20 17 14 15 13 11 11 11 22 27 30 26 34 28 24 25 27 29 28 30 32
18 18 17 17 17 18 22 22 21 20 19 20 21 24 24 23 23 25 24 24 23 23 26 22 18 14 13 13 12 14 12 11 9 23 30 30 32 32 29 28 30 32 30 27 28
20 19 17 18 17 19 20 18 17 17 18 19 23 22 24 23 24 24 23 20 22 22 21 20 18 16 13 12 11 10 12 11 9 7 24 27 33 33 29 29 31 31 31 30 28
20 21 17 17 16 19 19 18 17 16 16 17 19 21 20 23 22 22 19 20 19 21 20 19 19 18 16 13 11 11 9 9 9 6 3 29 28 22 25 25 26 28 27 27 26
21 21 18 17 21 19 19 18 18 17 16 16 17 16 19 21 22 21 19 18 18 19 22 18 17 19 17 15 13 10 7 8 6 4 3 3 37 29 25 23 24 24 22 22 22
23 22 20 18 20 21 20 19 18 17 16 17 18 16 17 20 21 18 19 19 17 18 21 18 17 21 21 18 16 11 7 4 6 5 4 4 4 20 22 27 29 30 25 24 22
21 21 22 20 20 20 21 21 20 18 18 17 19 19 18 20 17 19 19 20 18 19 19 16 16 14 17 10 14 9 7 4 2 3 6 9 15 14 37 39 36 32 29 26 22
20 19 20 21 22 20 21 22 22 22 20 18 21 17 18 21 22 21 19 22 21 20 19 17 19 14 11 10 9 10 11 6 7 10 8 7 10 15 25 40 40 35 32 27 22
19 20 20 22 23 23 21 22 23 24 21 23 20 23 17 19 19 22 23 23 22 19 20 19 21 21 16 16 15 13 9 6 6 9 12 16 21 18 15 25 31 32 27 25 24
21 20 21 23 22 23 23 22 24 24 23 21 21 25 24 19 19 19 21 21 19 21 21 21 21 22 22 24 26 18 14 16 14 8 7 3 7 6 5 26 32 30 28 29 24
Wind_Direction
57 49 46 45 43 39 35 31 31 32 32 31 29 28 28 31 34 37 27 31 7 267 327 309 305 291 266 249 244 240 238 236 235 234 237 240 246 256 251 247 249 253 264 264 195
70 67 60 55 50 45 41 38 38 38 37 35 34 33 35 43 43 39 44 35 227 250 358 335 310 290 262 248 242 235 233 239 243 242 239 238 242 253 248 245 245 251 263 249 190
81 78 70 62 57 51 47 44 42 41 40 39 37 37 42 51 48 39 44 53 278 343 35 27 315 299 263 254 240 237 232 241 248 247 244 234 234 254 248 244 243 247 251 229 196
87 83 74 66 61 57 52 50 47 44 43 42 41 40 50 55 52 46 51 49 31 34 41 22 333 303 273 251 245 238 236 240 251 251 241 235 233 244 253 248 253 250 242 219 209
84 80 73 71 65 60 57 53 50 46 44 44 45 44 54 54 53 56 57 54 50 36 13 349 340 305 277 262 249 239 240 243 249 252 245 240 235 234 253 255 259 248 237 221 215
78 73 71 69 67 64 60 56 51 49 46 48 49 50 55 50 54 63 66 64 58 49 37 353 312 299 287 270 250 247 242 240 246 251 246 239 240 235 247 262 254 248 241 236 228
65 64 68 69 67 64 62 58 53 50 51 51 54 56 58 56 62 72 74 73 72 70 66 70 310 290 284 271 265 250 245 240 242 248 248 241 239 230 239 251 254 246 242 240 235
65 65 67 71 72 67 65 63 56 52 59 57 60 62 59 62 69 71 74 76 72 81 84 115 219 276 287 276 266 249 249 237 243 243 248 241 235 237 240 246 251 246 246 244 240
73 71 70 72 72 67 65 69 63 64 64 66 59 62 55 59 58 65 64 71 76 73 78 87 12 307 285 281 265 255 243 243 245 245 247 243 242 244 240 244 247 247 250 244 242
80 77 74 71 67 62 60 77 76 69 63 70 60 62 58 53 60 66 66 69 72 80 80 63 33 335 297 292 260 257 246 251 246 251 247 245 243 249 242 230 246 245 253 247 243
67 71 72 70 68 63 61 65 60 59 57 56 56 59 56 56 73 67 66 69 67 67 71 74 16 353 286 291 287 276 262 253 257 259 252 247 245 249 248 241 243 245 251 252 246
56 58 65 67 68 63 63 56 64 69 51 62 62 62 63 64 61 64 65 69 70 70 69 72 30 293 274 290 293 286 273 259 264 270 260 255 248 249 248 247 245 243 246 249 249
42 47 55 62 63 58 55 58 75 76 54 53 57 58 56 62 60 61 64 71 68 65 68 71 78 91 6 316 297 294 283 275 266 269 273 264 254 247 250 250 244 241 240 245 247
30 33 41 51 52 52 53 63 69 73 49 41 48 56 56 59 60 66 69 68 65 62 70 77 80 88 77 342 314 295 294 286 281 271 253 269 246 249 249 249 244 242 239 245 248
22 29 33 30 48 45 52 64 66 64 37 40 46 59 51 56 56 57 65 66 59 60 68 67 77 87 84 88 345 309 300 297 287 276 267 262 254 254 257 247 249 248 241 237 248
10 20 31 38 43 48 53 57 54 39 37 40 46 43 44 52 53 55 57 62 68 63 66 72 83 86 90 101 107 232 312 300 293 279 260 266 257 259 256 255 258 264 260 249 248
3 14 27 38 30 44 45 38 31 31 38 34 38 38 43 44 49 48 51 51 52 49 51 62 73 81 83 83 68 70 35 303 278 264 257 275 262 258 268 271 271 267 272 262 257
359 10 18 28 33 36 32 28 23 29 32 37 36 36 39 39 45 45 46 47 54 53 53 51 57 65 73 74 83 85 87 60 297 271 266 276 257 267 278 282 280 275 279 277 270
357 359 8 15 23 28 15 16 22 25 30 28 28 28 32 36 36 38 42 45 49 50 47 48 55 66 69 77 83 80 87 71 57 302 277 270 271 281 283 285 282 278 278 280 280
345 349 353 2 14 14 8 11 18 23 23 24 18 24 21 25 27 29 34 45 43 46 48 50 45 56 62 65 75 91 85 85 87 90 296 278 272 268 283 291 288 282 277 281 282
338 336 349 355 5 358 355 1 5 11 19 19 14 12 15 14 19 22 29 31 40 38 40 43 44 42 42 59 61 69 82 88 88 87 113 292 279 288 288 303 300 290 286 287 285
331 329 343 350 339 348 347 355 360 1 6 6 9 9 8 9 10 14 18 23 28 30 25 36 38 30 35 50 61 68 73 77 77 81 107 1 275 289 287 291 304 304 299 298 294
321 321 334 338 330 335 340 343 349 352 355 2 359 360 6 1 2 9 8 15 19 16 16 22 26 17 26 36 38 42 49 68 50 42 226 224 285 307 291 286 293 297 295 294 294
322 323 323 328 328 331 334 336 340 345 347 350 348 350 352 351 351 357 359 4 8 2 5 12 8 12 3 355 10 357 349 344 316 278 258 234 247 264 285 283 285 284 288 289 288
322 319 322 323 324 327 331 332 332 334 337 341 341 337 341 342 344 344 351 350 353 356 359 0 349 348 333 325 324 301 283 298 265 251 244 262 251 243 270 283 281 283 284 280 279
319 319 321 319 320 321 323 325 325 327 330 332 328 335 331 329 332 332 338 341 344 349 347 350 341 344 332 340 352 338 309 293 284 254 248 243 247 250 236 308 289 280 282 280 277
316 318 317 315 317 318 318 321 325 329 329 330 331 329 326 318 319 320 324 326 325 329 330 336 336 341 336 344 344 346 3 352 354 358 13 291 242 352 215 253 267 281 280 279 283